Weather History for Juneau, WI

Change the Weather History Date:

Wednesday, February 27, 2013

  Actual Average Record
Temperature  
Mean Temperature 30 °F -  
Max Temperature 32 °F 31 °F 57 °F (1976)
Min Temperature 28 °F 19 °F -10 °F (1993)
Degree Days  
Heating Degree Days 35    
Moisture  
Dew Point 29 °F    
Average Humidity 92    
Maximum Humidity 100    
Minimum Humidity 86    
Precipitation  
Precipitation 0.00 in - - ()
Sea Level Pressure  
Sea Level Pressure 29.66 in    
Wind  
Wind Speed 17 mph (North)    
Max Wind Speed 21 mph    
Max Gust Speed 30 mph    
Visibility 4 miles    
Events Snow    
Averages and records for this station are not official NWS values.
T = Trace of Precipitation, MM = Missing Value Source: NWS Daily Summary

Daily Weather History Graph

Daily Weather History Graph

Search for Another Location

Airport:

Trip Planner

Search our weather history database for the weather conditions in past years. The results will help you decide how hot, cold, wet, or windy it might be!

Date:

Astronomy

Feb. 27, 2013 Rise Set
Actual Time 6:34 AM CST 5:41 PM CST
Civil Twilight 6:05 AM CST 6:10 PM CST
Nautical Twilight 5:32 AM CST 6:43 PM CST
Astronomical Twilight 4:59 AM CST 7:16 PM CST
Moon 8:08 PM CST (2/27) 7:04 AM CST (2/27)
Length of Visible Light 12h 04m
Length of Day
11h 07m
Waning Gibbous, 96% of the Moon is Illuminated
Feb 27
Waning Gibbous
Mar 4
Last Quarter
Mar 11
New
Mar 19
First Quarter
Mar 27
Full

Hourly Weather History & Observations

Time (CST) Temp. Windchill Dew Point Humidity Pressure Visibility Wind Dir Wind Speed Gust Speed Precip Events Conditions
12:15 AM 30.2 °F 19.8 °F 30.2 °F 100% 29.63 in 1.5 mi North 13.8 mph 21.9 mph N/A Snow Light Snow
12:35 AM 30.2 °F 19.8 °F 30.2 °F 100% 29.63 in 1.5 mi North 13.8 mph 19.6 mph N/A Snow Light Snow
12:55 AM 30.2 °F 18.9 °F 30.2 °F 100% 29.63 in 1.5 mi North 16.1 mph 20.7 mph N/A Snow Light Snow
1:15 AM 30.2 °F 18.9 °F 28.4 °F 93% 29.63 in 1.2 mi North 16.1 mph 23.0 mph N/A Snow Light Snow
1:35 AM 30.2 °F 18.1 °F 28.4 °F 93% 29.63 in 1.2 mi North 18.4 mph 24.2 mph N/A Snow Light Snow
1:55 AM 28.4 °F 15.8 °F 28.4 °F 100% 29.63 in 1.0 mi North 18.4 mph 24.2 mph N/A Snow Light Snow
2:15 AM 28.4 °F 15.8 °F 28.4 °F 100% 29.62 in 2.5 mi North 18.4 mph 26.5 mph N/A Snow Light Snow
2:35 AM 28.4 °F 15.4 °F 28.4 °F 100% 29.61 in 3.0 mi North 19.6 mph 25.3 mph N/A Snow Light Snow
2:55 AM 28.4 °F 15.1 °F 28.4 °F 100% 29.61 in 2.5 mi North 20.7 mph 26.5 mph N/A Snow Light Snow
3:15 AM 28.4 °F 15.4 °F 26.6 °F 93% 29.61 in 2.0 mi North 19.6 mph 28.8 mph N/A Snow Light Snow
3:35 AM 28.4 °F 15.1 °F 26.6 °F 93% 29.61 in 2.5 mi North 20.7 mph 28.8 mph N/A Snow Light Snow
3:55 AM 28.4 °F 15.1 °F 26.6 °F 93% 29.61 in 1.8 mi North 20.7 mph 25.3 mph N/A Snow Light Snow
4:15 AM 28.4 °F 15.1 °F 26.6 °F 93% 29.61 in 3.0 mi North 20.7 mph 28.8 mph N/A Snow Light Snow
4:35 AM 28.4 °F 15.1 °F 26.6 °F 93% 29.61 in 4.0 mi North 20.7 mph 25.3 mph N/A Snow Light Snow
4:55 AM 28.4 °F 15.4 °F 26.6 °F 93% 29.61 in 2.0 mi North 19.6 mph 29.9 mph N/A Snow Light Snow
5:15 AM 28.4 °F 16.2 °F 26.6 °F 93% 29.61 in 3.0 mi North 17.3 mph 28.8 mph N/A Snow Light Snow
5:35 AM 28.4 °F 16.2 °F 26.6 °F 93% 29.61 in 2.5 mi North 17.3 mph 26.5 mph N/A Snow Light Snow
5:55 AM 28.4 °F 15.8 °F 26.6 °F 93% 29.61 in 1.5 mi North 18.4 mph 24.2 mph N/A Snow Light Snow
6:15 AM 28.4 °F 15.1 °F 26.6 °F 93% 29.61 in 1.5 mi North 20.7 mph 25.3 mph N/A Snow Light Snow
6:55 AM 28.4 °F 16.2 °F 26.6 °F 93% 29.61 in 2.5 mi North 17.3 mph 26.5 mph N/A Snow Light Snow
7:15 AM 28.4 °F 15.8 °F 26.6 °F 93% 29.62 in 1.8 mi North 18.4 mph 25.3 mph N/A Snow Light Snow
7:35 AM 28.4 °F 15.1 °F 26.6 °F 93% 29.63 in 7.0 mi North 20.7 mph 26.5 mph N/A Snow Light Snow
7:55 AM 30.2 °F 18.1 °F 26.6 °F 86% 29.63 in 5.0 mi North 18.4 mph 23.0 mph N/A Snow Light Snow
8:15 AM 30.2 °F 18.9 °F 28.4 °F 93% 29.63 in 3.0 mi North 16.1 mph 23.0 mph N/A   Overcast
8:35 AM 30.2 °F 18.9 °F 28.4 °F 93% 29.64 in 1.5 mi North 16.1 mph 21.9 mph N/A Snow Light Snow
9:15 AM 30.2 °F 19.3 °F 28.4 °F 93% 29.63 in 2.5 mi North 15.0 mph 20.7 mph N/A Snow Light Snow
9:35 AM 30.2 °F 18.9 °F 28.4 °F 93% 29.63 in 2.0 mi North 16.1 mph 23.0 mph N/A Snow Light Snow
9:55 AM 30.2 °F 18.1 °F 28.4 °F 93% 29.63 in 1.8 mi North 18.4 mph 24.2 mph N/A Snow Light Snow
10:15 AM 30.2 °F 18.9 °F 28.4 °F 93% 29.63 in 2.5 mi North 16.1 mph 23.0 mph N/A Snow Light Snow
10:55 AM 30.2 °F 18.1 °F 28.4 °F 93% 29.63 in 3.0 mi North 18.4 mph 25.3 mph N/A   Overcast
11:15 AM 32.0 °F 21.6 °F 28.4 °F 87% 29.63 in 1.5 mi North 15.0 mph 27.6 mph N/A Snow Light Snow
11:35 AM 32.0 °F 21.2 °F 28.4 °F 87% 29.63 in 3.0 mi North 16.1 mph 25.3 mph N/A   Overcast
11:55 AM 32.0 °F 21.2 °F 28.4 °F 87% 29.63 in 5.0 mi North 16.1 mph 23.0 mph N/A   Overcast
12:15 PM 32.0 °F 20.8 °F 28.4 °F 87% 29.63 in 3.0 mi North 17.3 mph 23.0 mph N/A   Overcast
12:35 PM 32.0 °F 20.1 °F 28.4 °F 87% 29.63 in 5.0 mi North 19.6 mph 26.5 mph N/A   Overcast
12:55 PM 32.0 °F 20.8 °F 28.4 °F 87% 29.63 in 1.5 mi North 17.3 mph 24.2 mph N/A Snow Light Snow
1:15 PM 32.0 °F 20.5 °F 30.2 °F 93% 29.63 in 1.2 mi North 18.4 mph - N/A Snow Light Snow
1:35 PM 32.0 °F 20.1 °F 28.4 °F 87% 29.63 in 2.5 mi North 19.6 mph 25.3 mph N/A   Overcast
1:55 PM 32.0 °F 20.8 °F 28.4 °F 87% 29.64 in 1.0 mi North 17.3 mph 24.2 mph N/A Snow Light Snow
2:15 PM 32.0 °F 20.8 °F 30.2 °F 93% 29.64 in 1.5 mi North 17.3 mph - N/A Snow Light Snow
2:35 PM 32.0 °F 21.2 °F 28.4 °F 87% 29.64 in 2.5 mi North 16.1 mph 24.2 mph N/A Snow Light Snow
2:55 PM 32.0 °F 21.2 °F 28.4 °F 87% 29.65 in 3.0 mi North 16.1 mph 21.9 mph N/A Snow Light Snow
3:15 PM 32.0 °F 20.8 °F 28.4 °F 87% 29.66 in 10.0 mi North 17.3 mph 23.0 mph N/A   Overcast
3:35 PM 32.0 °F 20.1 °F 28.4 °F 87% 29.67 in 7.0 mi North 19.6 mph 25.3 mph N/A   Overcast
3:55 PM 32.0 °F 20.8 °F 28.4 °F 87% 29.67 in 4.0 mi North 17.3 mph 23.0 mph N/A Snow Light Snow
4:15 PM 32.0 °F 20.5 °F 28.4 °F 87% 29.67 in 2.5 mi North 18.4 mph 25.3 mph N/A Snow Light Snow
4:35 PM 32.0 °F 21.2 °F 28.4 °F 87% 29.68 in 5.0 mi North 16.1 mph 24.2 mph N/A Snow Light Snow
4:55 PM 32.0 °F 21.6 °F 28.4 °F 87% 29.69 in 5.0 mi North 15.0 mph 21.9 mph N/A Snow Light Snow
5:15 PM 32.0 °F 22.1 °F 28.4 °F 87% 29.70 in 4.0 mi North 13.8 mph 20.7 mph N/A Snow Light Snow
5:35 PM 32.0 °F 22.1 °F 28.4 °F 87% 29.70 in 10.0 mi North 13.8 mph 20.7 mph N/A   Overcast
5:55 PM 32.0 °F 21.6 °F 28.4 °F 87% 29.71 in 10.0 mi North 15.0 mph 19.6 mph N/A   Overcast
6:15 PM 32.0 °F 23.0 °F 28.4 °F 87% 29.72 in 10.0 mi NNW 11.5 mph - N/A Snow Light Snow
6:35 PM 32.0 °F 22.1 °F 30.2 °F 93% 29.72 in 1.8 mi NNW 13.8 mph - N/A Snow Light Snow
6:55 PM 32.0 °F 22.1 °F 30.2 °F 93% 29.72 in 2.5 mi NNW 13.8 mph - N/A Snow Light Snow
7:15 PM 32.0 °F 21.6 °F 30.2 °F 93% 29.73 in 7.0 mi NNW 15.0 mph 23.0 mph N/A   Overcast
7:35 PM 32.0 °F 21.2 °F 30.2 °F 93% 29.73 in 5.0 mi NNW 16.1 mph 20.7 mph N/A Snow Light Snow
7:55 PM 32.0 °F 22.1 °F 30.2 °F 93% 29.73 in 7.0 mi NNW 13.8 mph - N/A   Overcast
8:15 PM 32.0 °F 22.1 °F 30.2 °F 93% 29.74 in 10.0 mi NNW 13.8 mph 20.7 mph N/A   Overcast
8:35 PM 32.0 °F 22.1 °F 30.2 °F 93% 29.75 in 10.0 mi NNW 13.8 mph - N/A   Overcast
8:55 PM 32.0 °F 22.5 °F 30.2 °F 93% 29.75 in 10.0 mi NNW 12.7 mph 17.3 mph N/A   Overcast
9:15 PM 32.0 °F 22.1 °F 30.2 °F 93% 29.75 in 10.0 mi NNW 13.8 mph 17.3 mph N/A   Overcast
9:35 PM 32.0 °F 22.5 °F 30.2 °F 93% 29.75 in 10.0 mi NNW 12.7 mph 20.7 mph N/A   Overcast
9:55 PM 32.0 °F 22.1 °F 30.2 °F 93% 29.75 in 10.0 mi NNW 13.8 mph - N/A   Overcast
10:15 PM 32.0 °F 22.1 °F 30.2 °F 93% 29.75 in 10.0 mi NNW 13.8 mph 21.9 mph N/A   Overcast
10:35 PM 32.0 °F 22.5 °F 30.2 °F 93% 29.76 in 10.0 mi NNW 12.7 mph 18.4 mph N/A   Overcast
10:55 PM 32.0 °F 22.1 °F 30.2 °F 93% 29.76 in 10.0 mi NNW 13.8 mph 17.3 mph N/A   Overcast
11:15 PM 32.0 °F 22.1 °F 30.2 °F 93% 29.76 in 10.0 mi NNW 13.8 mph - N/A   Overcast
11:55 PM 32.0 °F 22.1 °F 30.2 °F 93% 29.77 in 7.0 mi NNW 13.8 mph - N/A   Overcast